Home   Weather   Livonia   Past weeks

Flag for USA Past Weather in Livonia, Michigan, USA — Yesterday and Last 2 Weeks

47 °F

Mostly cloudy.

Feels Like: 42 °F
Forecast: 42 / 49 °F
Wind: 12 mph from Northwest

Location: Detroit Metropolitan Wayne County Airport

Current Time: Oct 27, 2016 at 3:06:03 PM

Latest Report: Oct 27, 2016 at 1:53 PM

Visibility: 10 mi

Pressure: 30.09 "Hg

Humidity: 83%

Dew Point: 42 °F

Location of LivoniaLocation

Past Weather in Livonia — Graph


Livonia Temperature Yesterday

Maximum temperature yesterday: 45 °F (at 9:00 PM)
Minimum temperature yesterday: 36 °F (at 3:53 AM)
Average temperature yesterday: 42 °F

High & Low Weather Summary for the Past Weeks

High81 °F (Oct 17, 2:53 PM)100% (Oct 16, 10:53 PM)30.47 "Hg (Oct 16, 10:53 PM)
Low35 °F (Oct 25, 6:53 AM)43% (Oct 19, 3:53 PM)29.61 "Hg (Oct 18, 5:53 AM)
Average55 °F77%30.08 "Hg
* Reported Oct 12 1:53 PM — Oct 27 1:53 PM, Livonia, Weather by CustomWeather, © 2016

Note: Actual official high and low records may vary slightly from our data, if they occured in-between our weather recording intervals... More about our weather records


Livonia Weather History for the Previous 24 Hours

Scroll right to see more
Time TempWeatherWind HumidityBarometerVisibility
1:53 PM
Thu, Oct 27
47 °FMostly cloudy.12 mph83%30.09 "Hg10 mi
12:53 PM46 °FMore clouds than sun.16 mph86%30.08 "Hg10 mi
11:53 AM45 °FMostly cloudy.13 mph93%30.06 "Hg9 mi
10:53 AM45 °FLow clouds.12 mph93%30.03 "Hg7 mi
9:53 AM45 °FLight rain. Fog.8 mph97%30.00 "Hg3 mi
8:53 AM45 °FLight rain. Fog.8 mph100%29.97 "Hg1 mi
8:01 AM47 °FLight rain. Fog.3 mph100%29.94 "Hg1 mi
6:53 AM47 °FLight rain. Fog.3 mph100%29.95 "Hg1 mi
5:53 AM47 °FLight rain. Fog.5 mph100%29.95 "Hg1 mi
4:53 AM47 °FDrizzle. Fog.8 mph97%29.97 "Hg2 mi
3:56 AM47 °FLight rain. Fog.6 mph97%30.00 "Hg2 mi
2:53 AM46 °FRain. Fog.6 mph96%30.03 "Hg2 mi
1:53 AM45 °FLight rain. Fog.8 mph97%30.07 "Hg2 mi
12:53 AM43 °FRain. Fog.10 mph97%30.11 "Hg2 mi
11:53 PM
Wed, Oct 26
43 °FRain. Fog.9 mph93%30.15 "Hg2 mi
10:53 PM44 °FLight rain. Overcast.9 mph89%30.17 "Hg7 mi
9:53 PM44 °FLight rain. Fog.10 mph89%30.20 "Hg5 mi
9:00 PM45 °FRain. Fog.10 mph90%30.21 "Hg4 mi
7:53 PM43 °FLight rain. Fog.12 mph93%30.22 "Hg6 mi
6:53 PM44 °FLight rain. Overcast.10 mph89%30.24 "Hg8 mi
5:53 PM44 °FLight rain. Overcast.10 mph89%30.27 "Hg7 mi
4:53 PM43 °FLight rain. Mostly cloudy.9 mph93%30.29 "Hg7 mi
3:56 PM43 °FMostly cloudy.8 mph93%30.30 "Hg8 mi
Weather by CustomWeather, © 2016

See weather overviewHow to use our weather pages